Marham, United Kingdom

11:38 AM GMT on December 05, 2016 (GMT +0000)
Lakenheath Air Base

Weather History for EGUL - January, 2013

Change the Weather History Date:

Wednesday, January 30, 2013

  Actual Average Record
Temperature  
Mean Temperature 48 °F -  
Max Temperature 54 °F - - ()
Min Temperature 42 °F - - ()
Degree Days  
Heating Degree Days 17    
Moisture  
Dew Point 46 °F    
Average Humidity 84    
Maximum Humidity 94    
Minimum Humidity 54    
Precipitation  
Precipitation 0.10 in - - ()
Sea Level Pressure  
Sea Level Pressure 29.55 in    
Wind  
Wind Speed 19 mph ()    
Max Wind Speed 38 mph    
Max Gust Speed 50 mph    
Visibility 5.3 miles    
Events Rain    
T = Trace of Precipitation, MM = Missing Value Source: Averaged Metar Reports

Daily Weather History Graph

Daily Weather History Graph

Search for Another Location

Airport or City:

Trip Planner

Search our weather history database for the weather conditions in past years. The results will help you decide how hot, cold, wet, or windy it might be!

Date:

Astronomy

Jan. 30, 2013 Rise Set
Actual Time 7:42 AM GMT 4:40 PM GMT
Civil Twilight 7:04 AM GMT 5:18 PM GMT
Nautical Twilight 6:23 AM GMT 5:59 PM GMT
Astronomical Twilight 5:43 AM GMT 6:39 PM GMT
Moon 9:01 PM GMT (1/30) 8:29 AM GMT (1/30)
Length of Visible Light 10h 13m
Length of Day
8h 58m
Waning Gibbous, 89% of the Moon is Illuminated
Jan 30
Waning Gibbous
Feb 3
Last Quarter
Feb 10
New
Feb 17
First Quarter
Feb 25
Full

Hourly Weather History & Observations

Time (GMT) Temp. Windchill Dew Point Humidity Pressure Visibility Wind Dir Wind Speed Gust Speed Precip Events Conditions
12:58 AM 54.3 °F - 52.2 °F 92% 29.46 in 5.6 mi SSW 20.7 mph 27.6 mph 0.00 in   Overcast
1:00 AM 53.6 °F - 51.8 °F 94% 29.45 in 5.6 mi SSW 19.6 mph 27.6 mph N/A Rain Light Rain
1:06 AM 53.6 °F - 51.8 °F 94% 29.45 in 5.0 mi SSW 18.4 mph 27.6 mph N/A   Overcast
1:07 AM 53.6 °F - 51.8 °F 94% 29.45 in 3.7 mi SSW 19.6 mph 27.6 mph N/A   Overcast
1:13 AM 53.6 °F - 51.8 °F 94% 29.44 in 5.0 mi SSW 18.4 mph - N/A Rain Light Rain
1:14 AM 53.6 °F - 51.8 °F 94% 29.44 in 5.6 mi SSW 18.4 mph - N/A Rain Light Rain
1:16 AM 53.6 °F - 51.8 °F 94% 29.43 in 6.2 mi SSW 19.6 mph - N/A Rain Light Rain
1:21 AM 53.6 °F - 51.8 °F 94% 29.44 in 6.2 mi SSW 16.1 mph 26.5 mph N/A Rain Light Rain
1:22 AM 53.6 °F - 51.8 °F 94% 29.44 in 6.2 mi SSW 18.4 mph 26.5 mph N/A Rain Light Rain
1:25 AM 53.6 °F - 51.8 °F 94% 29.44 in 6.2 mi SSW 18.4 mph 26.5 mph N/A Rain Light Rain
1:28 AM 53.6 °F - 51.8 °F 94% 29.43 in 6.2 mi SSW 18.4 mph 26.5 mph N/A Rain Light Rain
1:37 AM 53.6 °F - 51.8 °F 94% 29.44 in 6.2 mi SSW 18.4 mph - N/A Rain Light Rain
1:43 AM 53.6 °F - 51.8 °F 94% 29.44 in 5.6 mi SSW 20.7 mph 28.8 mph N/A   Overcast
1:45 AM 53.6 °F - 51.8 °F 94% 29.44 in 5.0 mi SW 25.3 mph 28.8 mph N/A   Overcast
1:47 AM 53.6 °F - 51.8 °F 94% 29.44 in 3.7 mi SSW 20.7 mph 28.8 mph N/A   Overcast
1:50 AM 53.6 °F - 51.8 °F 94% 29.44 in 3.7 mi SW 20.7 mph 28.8 mph N/A   Overcast
1:51 AM 53.6 °F - 51.8 °F 94% 29.44 in 3.7 mi SW 20.7 mph 28.8 mph N/A   Overcast
1:55 AM 53.6 °F - 51.8 °F 94% 29.46 in 3.1 mi WSW 23.0 mph 26.5 mph N/A Rain Heavy Rain
1:56 AM 53.6 °F - 51.8 °F 94% 29.46 in 3.1 mi West 24.2 mph 26.5 mph N/A Rain Heavy Rain
1:57 AM 53.6 °F - 51.8 °F 94% 29.46 in 2.5 mi West 23.0 mph - N/A Rain Heavy Rain
1:58 AM 53.6 °F - 51.8 °F 94% 29.47 in 2.5 mi West 25.3 mph - 0.02 in Rain Heavy Rain
1:59 AM 53.6 °F - 51.8 °F 94% 29.46 in - West 23.0 mph 31.1 mph N/A Rain Heavy Rain
2:01 AM 53.6 °F - 51.8 °F 94% 29.46 in 1.7 mi West 21.9 mph 31.1 mph N/A Rain Heavy Rain
2:02 AM 53.6 °F - 51.8 °F 94% 29.46 in 1.7 mi West 20.7 mph 31.1 mph N/A Rain Heavy Rain
2:06 AM 51.8 °F - 50.0 °F 94% 29.46 in - West 16.1 mph 31.1 mph N/A Rain Heavy Rain
2:08 AM 51.8 °F - 50.0 °F 94% 29.46 in 2.5 mi West 19.6 mph 31.1 mph N/A Rain Rain
2:09 AM 51.8 °F - 50.0 °F 94% 29.46 in 2.5 mi West 18.4 mph 31.1 mph N/A Rain Rain
2:10 AM 51.8 °F - 50.0 °F 94% 29.46 in 3.1 mi West 19.6 mph - N/A Rain Rain
2:36 AM 50.0 °F - 48.2 °F 94% 29.48 in 6.2 mi West 17.3 mph 26.5 mph N/A Rain Rain
2:58 AM 49.8 °F - 47.3 °F 91% 29.48 in 6.2 mi West 16.1 mph 21.9 mph 0.05 in Rain Rain
3:58 AM 48.9 °F - 46.0 °F 90% 29.49 in 6.2 mi WSW 11.5 mph - 0.02 in Rain Light Rain
4:46 AM 48.2 °F - 44.6 °F 87% 29.46 in 6.2 mi SW 12.7 mph - N/A Rain Light Rain
4:58 AM 48.0 °F - 45.3 °F 90% 29.48 in 6.2 mi SW 12.7 mph - 0.01 in Rain Light Rain
5:32 AM 48.2 °F - 44.6 °F 87% 29.49 in 6.2 mi SW 15.0 mph - N/A   Clear
5:58 AM 48.0 °F - 45.1 °F 90% 29.50 in 6.2 mi SW 15.0 mph - 0.00 in   Clear
6:58 AM 48.0 °F - 44.4 °F 87% 29.51 in 6.2 mi SW 13.8 mph - N/A   Mostly Cloudy
7:58 AM 47.7 °F - 43.7 °F 86% 29.54 in 6.2 mi WSW 20.7 mph - N/A   Mostly Cloudy
8:43 AM 48.2 °F - 44.6 °F 87% 29.54 in 6.2 mi SW 18.4 mph - N/A   Light Drizzle
8:52 AM 48.2 °F - 44.6 °F 87% 29.54 in 6.2 mi SW 19.6 mph 26.5 mph N/A   Mostly Cloudy
8:58 AM 48.6 °F - 43.9 °F 84% 29.54 in 6.2 mi SW 20.7 mph 26.5 mph 0.00 in   Mostly Cloudy
9:58 AM 48.7 °F - 39.6 °F 71% 29.58 in 6.2 mi WSW 21.9 mph 31.1 mph N/A   Partly Cloudy
10:58 AM 50.2 °F - 41.4 °F 72% 29.60 in 6.2 mi WSW 25.3 mph 31.1 mph N/A   Clear
11:58 AM 51.6 °F - 42.4 °F 71% 29.62 in 6.2 mi WSW 26.5 mph 40.3 mph N/A   Scattered Clouds
12:58 PM 51.3 °F - 41.2 °F 68% 29.63 in 6.2 mi WSW 21.9 mph 29.9 mph 0.00 in   Scattered Clouds
1:58 PM 51.8 °F - 37.2 °F 58% 29.65 in 6.2 mi WSW 24.2 mph 31.1 mph N/A   Partly Cloudy
2:58 PM 51.6 °F - 36.9 °F 57% 29.65 in 6.2 mi WSW 25.3 mph 35.7 mph N/A   Clear
3:58 PM 50.4 °F - 36.0 °F 58% 29.68 in 6.2 mi WSW 25.3 mph 32.2 mph N/A   Clear
5:37 PM 48.2 °F - 33.8 °F 58% 29.71 in 6.2 mi WSW 31.1 mph 47.2 mph N/A   Squalls
5:40 PM 50.0 °F - 33.8 °F 54% 29.73 in 6.2 mi West 38.0 mph 49.5 mph N/A Rain Light Rain
5:52 PM 48.2 °F - 35.6 °F 62% 29.73 in 6.2 mi West 28.8 mph 41.4 mph N/A   Mostly Cloudy
5:58 PM 48.2 °F - 35.2 °F 61% 29.74 in 6.2 mi West 26.5 mph 41.4 mph 0.00 in   Scattered Clouds
6:58 PM 47.1 °F - 35.6 °F 64% 29.80 in 6.2 mi West 18.4 mph 28.8 mph N/A   Partly Cloudy
7:58 PM 46.9 °F - 36.3 °F 67% 29.84 in 6.2 mi West 23.0 mph 33.4 mph N/A   Scattered Clouds
8:58 PM 45.0 °F 37.4 °F 36.5 °F 72% 29.87 in 6.2 mi West 18.4 mph 25.3 mph N/A   Clear
9:58 PM 43.5 °F 35.8 °F 36.3 °F 76% 29.88 in 6.2 mi WSW 17.3 mph - N/A   Clear
10:58 PM 42.8 °F 35.1 °F 35.6 °F 76% 29.92 in 6.2 mi WSW 16.1 mph - N/A   Clear
11:58 PM 42.4 °F 35.7 °F 35.4 °F 76% 29.95 in 6.2 mi SW 12.7 mph - N/A   Clear